Change the Weather History Date:

Sunday, January 20, 2013

  Actual Average Record
Temperature  
Mean Temperature -10 °F -  
Max Temperature -2 °F 18 °F 43 °F (1944)
Min Temperature -20 °F -7 °F -40 °F (1943)
Degree Days  
Heating Degree Days 75    
Moisture  
Dew Point -18 °F    
Average Humidity 77    
Maximum Humidity 84    
Minimum Humidity 62    
Precipitation  
Precipitation 0.00 in - - ()
Sea Level Pressure  
Sea Level Pressure 30.31 in    
Wind  
Wind Speed 4 mph (WNW)    
Max Wind Speed 10 mph    
Max Gust Speed -    
Visibility 8 miles    
Events Snow    
Averages and records for this station are not official NWS values.
T = Trace of Precipitation, MM = Missing Value Source: NWS Daily Summary

Daily Weather History Graph

Daily Weather History Graph

Search for Another Location

Airport or City:

Trip Planner

Search our weather history database for the weather conditions in past years. The results will help you decide how hot, cold, wet, or windy it might be!

Date:

Astronomy

Jan. 20, 2013 Rise Set
Actual Time 8:01 AM CST 4:57 PM CST
Civil Twilight 7:26 AM CST 5:33 PM CST
Nautical Twilight 6:47 AM CST 6:11 PM CST
Astronomical Twilight 6:10 AM CST 6:49 PM CST
Moon 12:01 PM CST (1/20) 2:32 AM CST (1/20)
Length of Visible Light 10h 06m
Length of Day
8h 56m
Waxing Gibbous, 66% of the Moon is Illuminated
Jan 20
Waxing Gibbous
Jan 26
Full
Feb 3
Last Quarter
Feb 10
New
Feb 17
First Quarter

Hourly Weather History & Observations

Time (CST) Temp. Windchill Dew Point Humidity Pressure Visibility Wind Dir Wind Speed Gust Speed Precip Events Conditions
12:53 AM -13.0 °F -28.6 °F -17.0 °F 82% 30.33 in 10.0 mi WNW 6.9 mph - N/A   Clear
1:53 AM -15.0 °F -27.4 °F -18.9 °F 82% 30.32 in 10.0 mi WNW 4.6 mph - N/A   Clear
2:53 AM -16.1 °F -28.6 °F -20.9 °F 79% 30.36 in 10.0 mi Variable 4.6 mph - N/A   Clear
3:53 AM -15.0 °F -27.4 °F -18.9 °F 82% 30.36 in 10.0 mi West 4.6 mph - N/A   Overcast
4:53 AM -15.0 °F -25.0 °F -18.9 °F 82% 30.37 in 10.0 mi WNW 3.5 mph - N/A   Mostly Cloudy
5:53 AM -16.1 °F -26.2 °F -20.9 °F 79% 30.35 in 10.0 mi Variable 3.5 mph - N/A   Partly Cloudy
6:53 AM -16.1 °F - -20.9 °F 79% 30.36 in 10.0 mi Calm Calm - N/A   Scattered Clouds
7:53 AM -15.0 °F - -18.9 °F 82% 30.36 in 2.5 mi Calm Calm - 0.00 in Snow Light Snow
8:11 AM -14.8 °F - -18.4 °F 84% 30.24 in 3.0 mi Calm Calm - 0.00 in   Overcast
8:23 AM -14.8 °F - -18.4 °F 84% 30.24 in 1.8 mi Calm Calm - 0.00 in   Overcast
8:53 AM -14.1 °F - -18.9 °F 79% 30.37 in 1.8 mi Calm Calm - 0.00 in   Haze
9:03 AM -14.8 °F -27.2 °F -18.4 °F 84% 30.25 in 2.0 mi SW 4.6 mph - N/A   Overcast
9:29 AM -14.8 °F - -18.4 °F 84% 30.25 in 3.0 mi Calm Calm - N/A   Overcast
9:39 AM -14.8 °F - -18.4 °F 84% 30.26 in 2.5 mi Calm Calm - N/A   Overcast
9:53 AM -13.0 °F - -17.0 °F 82% 30.38 in 3.0 mi Calm Calm - N/A   Overcast
10:15 AM -11.2 °F -20.6 °F -16.6 °F 77% 30.26 in 6.0 mi Variable 3.5 mph - N/A   Haze
10:37 AM -9.4 °F - -14.8 °F 77% 30.26 in 10.0 mi Calm Calm - N/A   Scattered Clouds
10:53 AM -9.0 °F -20.4 °F -14.1 °F 79% 30.39 in 10.0 mi Variable 4.6 mph - N/A   Clear
11:53 AM -7.1 °F -25.0 °F -14.1 °F 72% 30.37 in 10.0 mi NW 10.4 mph - N/A   Clear
12:53 PM -5.1 °F -21.5 °F -13.0 °F 69% 30.35 in 10.0 mi NW 9.2 mph - N/A   Partly Cloudy
1:53 PM -4.0 °F -19.0 °F -13.0 °F 65% 30.35 in 10.0 mi NW 8.1 mph - N/A   Clear
2:53 PM -2.9 °F -16.5 °F -13.0 °F 62% 30.32 in 10.0 mi WNW 6.9 mph - N/A   Clear
3:53 PM -5.1 °F -17.6 °F -14.1 °F 65% 30.32 in 10.0 mi Variable 5.8 mph - N/A   Clear
4:53 PM -7.1 °F -15.9 °F -15.0 °F 68% 30.31 in 10.0 mi Variable 3.5 mph - N/A   Scattered Clouds
5:53 PM -9.0 °F -25.2 °F -16.1 °F 71% 30.32 in 10.0 mi West 8.1 mph - N/A   Clear
6:53 PM -11.9 °F -28.7 °F -18.0 °F 74% 30.32 in 10.0 mi West 8.1 mph - N/A   Mostly Cloudy
7:53 PM -13.0 °F -30.0 °F -20.0 °F 71% 30.32 in 10.0 mi WNW 8.1 mph - N/A   Clear
8:50 PM -14.8 °F -29.1 °F -20.2 °F 77% 30.19 in 10.0 mi WNW 5.8 mph - N/A   Mostly Cloudy
8:53 PM -14.1 °F -29.9 °F -20.9 °F 71% 30.32 in 9.0 mi WNW 6.9 mph - N/A   Mostly Cloudy
9:01 PM -14.8 °F -30.8 °F -20.2 °F 77% 30.20 in 9.0 mi WNW 6.9 mph - N/A   Partly Cloudy
9:53 PM -16.1 °F -32.3 °F -22.0 °F 74% 30.33 in 10.0 mi WNW 6.9 mph - N/A   Clear
10:19 PM -16.6 °F -31.3 °F -22.0 °F 76% 30.20 in 4.0 mi WNW 5.8 mph - N/A   Haze
10:53 PM -18.0 °F -33.0 °F -23.1 °F 78% 30.33 in 10.0 mi WNW 5.8 mph - N/A   Scattered Clouds
11:53 PM -20.0 °F -30.7 °F -25.1 °F 78% 30.33 in 10.0 mi Variable 3.5 mph - N/A   Clear